Tracking 19286 objects as of 19-Nov-2018
HD Live streaming from Space Station
objects crossing your sky now

COSMOS 510

Track COSMOS 510 now!
10-day predictions
COSMOS 510 is classified as:


NORAD ID: 6123
Int'l Code: 1972-057G
Perigee: 1,502.9 km
Apogee: 1,515.9 km
Inclination: 74.0 °
Period: 116.0 minutes
Semi major axis: 7880 km
RCS: 0.6741 m2 (medium)
Launch date: July 20, 1972
Source: Commonwealth of Independent States (former USSR) (CIS)
Launch site: PLESETSK MISSILE AND SPACE COMPLEX (PKMTR)
aabbcc
Your satellite tracking list
Your tracking list is empty




NASA's NSSDC Master Catalog

Two Line Element Set (TLE):
1  6123U 72057G   18322.91621948 -.00000032 +00000-0 -11984-3 0  9992
2  6123 074.0295 068.3556 0008261 082.9694 034.2999 12.41033589098996
Source of the keplerian elements: AFSPC